Location: Peterborough
(44.3091°N, 78.3197°W)
Time: 03:31:20
(UTC-04:00)

A-11 Canister half - Pass Details

Date: 26 March 2023
Orbit: 1513 x 1686 km, 47.2° (Epoch: 08 June)

Event Time Altitude Azimuth Distance (km) Brightness Sun altitude
Rises 01:03:20 0° 269° (W) 4,860 11.7 -43.5°
Reaches altitude 10° 01:06:27 10° 271° (W) 3,893 11.1 -43.5°
Enters shadow 01:08:52 20° 274° (W) 3,172 10.6 -43.5°
Exits shadow 01:22:55 27° 80° (E) 2,826 10.3 -43.6°
Drops below altitude 10° 01:26:46 10° 84° (E) 3,952 11.2 -43.6°
Sets 01:29:57 0° 86° (E) 4,936 11.7 -43.5°
